Miscellaneous Local Product
Issued by NWS Hastings, NE

Home | Current Version | Previous Version | Text Only | Print | Product List | Glossary Off
Versions: 1 2 3 4 5 6 7 8 9 10 11 12 13 14 15 16 17 18 19 20 21 22 23 24 25 26 27 28 29 30 31 32 33 34 35 36 37 38 39 40 41 42 43 44 45 46 47 48 49 50

000
AXUS43 KGID 272002
MISGRI

GID CWA HOURLY WEATHER ROUNDUP
NATIONAL WEATHER SERVICE HASTINGS NE
300 PM CDT WED JUL 27 2016

NOTE: "FAIR" INDICATES FEW OR NO CLOUDS BELOW 12,000 FEET WITH NO
SIGNIFICANT WEATHER AND/OR OBSTRUCTIONS TO VISIBILITY.

...SOUTH CENTRAL NEBRASKA...

CITY           SKY/WX    TMP DP  RH WIND       PRES   REMARKS
GRAND ISLAND   SUNNY     86  62  44 VRB3      30.03F
HASTINGS       SUNNY     84  66  54 NW7       30.05F
KEARNEY        MOSUNNY   88  25  10 N6        30.06F
ORD            SUNNY     82  62  50 VRB3      30.03F
YORK           MOSUNNY   84  66  54 NW6       30.02F
AURORA         SUNNY     85  63  48 N6        30.03F
LEXINGTON      CLOUDY    83  68  59 E7        30.03F
HOLDREGE       MOSUNNY   80  66  62 E8        30.06F
HEBRON         CLOUDY    87  62  43 NW7       30.01F

...NEBRASKA PANHANDLE...

CITY           SKY/WX    TMP DP  RH WIND       PRES   REMARKS
CHADRON        SUNNY     84  56  38 NE15      30.10F
ALLIANCE       SUNNY     87  53  31 VRB3      30.10F
SCOTTSBLUFF    SUNNY     87  50  27 NE5       30.12F
SIDNEY         SUNNY     86  55  34 VRB7G17   30.15F

...WESTERN AND NORTH CENTRAL NEBRASKA...

CITY           SKY/WX    TMP DP  RH WIND       PRES   REMARKS
VALENTINE      PTSUNNY   83  57  41 MISG      30.03F
AINSWORTH      PTSUNNY   80  64  59 NE5       30.05S
ONEILL         SUNNY     82  60  46 CALM      30.04F
BROKEN BOW     SUNNY     80  67  64 SE12      30.02F
IMPERIAL       SUNNY     86  61  42 SE10      30.07F
NORTH PLATTE   SUNNY     86  63  45 VRB5      30.07R
MCCOOK         SUNNY     85  68  56 SE12      30.05F

...EASTERN NEBRASKA...

CITY           SKY/WX    TMP DP  RH WIND       PRES   REMARKS
NORFOLK        MOSUNNY   85  62  46 N6        30.00F
SO SIOUX CITY  PTSUNNY   86  68  54 VRB3      29.97F
TEKAMAH        SUNNY     85  65  51 E6        29.97F
COLUMBUS       MOSUNNY   82  64  54 N9        30.01F
ALBION         SUNNY     82  62  51 CALM      30.03F
OMAHA EPPLEY   MOSUNNY   83  69  62 NE9       29.97S
OFFUTT AFB     MOSUNNY   83  71  67 NE13      29.97S
MILLARD        MOSUNNY   86  67  53 W7        29.96F
LINCOLN        MOSUNNY   87  67  51 NW9       29.99F HX  90
NEBRASKA CITY  MOSUNNY   84  70  61 W6        29.99R
BEATRICE       CLOUDY    87  64  45 W9        29.99F
FALLS CITY     MOSUNNY   88  72  58 CALM      29.96F HX  94

...NORTHERN KANSAS...

CITY           SKY/WX    TMP DP  RH WIND       PRES   REMARKS
GOODLAND       SUNNY     89  61  38 SE13G18   30.09F
HILL CITY      LGT RAIN  79  72  79 E7        30.03F
NORTON         PTCLDY    91  55  29 N10       30.03S
SMITH CENTER   SUNNY     90  64  43 N6        30.01F HX  91
BELOIT         MOSUNNY   88  72  58 N6        29.99F HX  94
HAYS           SUNNY     90  66  45 E6        30.01F HX  92
RUSSELL        PTSUNNY   90  66  45 NE6       30.00F HX  92
CONCORDIA      MOSUNNY   85  69  58 SW6       30.01F
SALINA         MOSUNNY   92  70  48 VRB6      29.99F HX  97
TOPEKA         CLOUDY    90  68  48 NE5       29.96F HX  94



USA.gov is the U.S. government's official web portal to all federal, state and local government web resources and services.